Location: Bay Ridge
(40.6340°N, 74.0146°W)
Time: 14:53:18
(UTC+00:00)

STARLINK-71 - Pass Details

Date: 15 November 2019
Orbit: 529 x 530 km, 53.0° (Epoch: 11 December)

Event Time Altitude Azimuth Distance (km) Brightness Sun altitude
Exits shadow 10:14:49 - 210° (SSW) 2,417 6.7 -16.7°
Reaches altitude 10° 10:16:31 10° 205° (SSW) 1,764 6.1 -16.4°
Maximum altitude 10:20:17 41° 134° (SE) 771 4.8 -15.7°
Drops below altitude 10° 10:24:05 10° 64° (ENE) 1,773 7.0 -15.0°
Sets 10:26:22 0° 57° (ENE) 2,665 7.8 -14.5°
